Weather Roundup
Issued by NWS Chicago, IL

Home | Current Version | Previous Version | Graphics & Text | Print | Product List | Glossary On
Versions: 1 2 3 4 5 6 7 8 9 10 11 12 13 14 15 16 17 18 19 20 21 22 23 24 25 26 27 28 29 30 31 32 33 34 35 36 37 38 39 40 41 42 43 44 45 46 47 48 49 50
000
NZUS59 KLOT 012310
HRRLOT

CHICAGO AREA WEATHER ROUNDUP
NATIONAL WEATHER SERVICE CHICAGO/ROMEOVILLE IL
500 PM CST SUN FEB 01 2015

NOTE: "FAIR" INDICATES FEW OR NO CLOUDS BELOW 12,000 FEET WITH NO
SIGNIFICANT WEATHER AND/OR OBSTRUCTIONS TO VISIBILITY.

* THESE STATIONS ARE NOT UNDER NWS QUALITY CONTROL. THEY ALSO MAY NOT
  REPORT WEATHER SUCH AS PRECIPITATION OR FOG.

ILZ005-006-012>014-019>023-020000-
NORTHEAST ILLINOIS

CITY           SKY/WX    TMP DP  RH WIND       PRES   REMARKS
OHARE          HVY SNOW  21  19  92 NE24G33   29.77R VSB 1/8 WCI   4
MIDWAY         SNOW      24  22  91 NE18      29.75S VSB 1/2 WCI  10
AURORA         HVY SNOW  23  18  81 NE33G39   29.74R VSB 1/4 WCI   5
LANSING*       LGT SNOW  24  23  93 NE12G18   29.71S VSB 3/4 WCI  13
JOLIET*        LGT SNOW  24  21  89 NE10G21   29.72R VSB 3/4 WCI  13
WAUKEGAN       HVY SNOW  21  19  92 N23G37    29.81R VSB<1/4 WCI   5
DUPAGE AIRPORT SNOW      22  19  89 NE25G32   29.75R VSB 1/2 WCI   5
WHEELING       FOG       22  19  89 NE22G31   29.81F VSB 1/4 WCI   6
KANKAKEE*      LGT SNOW  28  26  94 NE16G24   29.66R VSB 1   WCI  15
MORRIS*        LGT SNOW  24  23  96 NE9G22    29.70R VSB 3/4 WCI  14
LEWIS AIRPORT* SNOW      23  21  92 NE21      29.72R VSB 1/4 WCI   8
NORTHERLY IS     N/A     24  23  96 NE30        N/A  WCI   7
$$

WIZ051-052-058>065-066-070>072-020000-
SOUTHEAST WISCONSIN

CITY           SKY/WX    TMP DP  RH WIND       PRES   REMARKS
MILWAUKEE      SNOW      21  17  84 NE26G41   29.87F VSB 1/4 WCI   4
KENOSHA*       SNOW      21  18  88 NE21G31   29.83F VSB 1/4 WCI   5
RACINE*        HVY SNOW  20  17  88 NE26G40   29.86F VSB 1/4 WCI   2
BURLINGTON     LGT SNOW  19  16  88 N17G31    29.86R VSB 3/4 WCI   4
WAUKESHA       LGT SNOW  18  14  86 NE12G35   29.89F VSB 3/4 WCI   5
WEST BEND      SNOW      14  10  85 N17G25    29.93S VSB 1/2 WCI  -3
$$

INZ001>003-010>013-019-020-020000-
NORTHWEST INDIANA

CITY           SKY/WX    TMP DP  RH WIND       PRES   REMARKS
GARY*          LGT SNOW  27  21  80 NE21G37   29.73R WCI  13
MICHIGAN CITY* NOT AVBL
RENSSELAER*    NOT AVBL
VALPARAISO     LGT SNOW  23  20  88 NE13      29.67S VSB 3/4 WCI  11
$$

LMZ740>746-020000-
SOUTHERN LAKE MICHIGAN

STATION/POSITION TIME  SKY/WX   TEMP WIND        PRES    VSBY
                                AIR  DIR/SP/G
                 (UTC)          (F)  (DEG/KT/KT) (MB)    (MI)
HARRISON CRIB    2300            23   30/ 31/ 37   N/A
BURNHAM HARBOR   2300            23   30/ 25/ 30   N/A
CALUMET HARBOR   2300            23   30/ 23/ 29   N/A
BURNS HARBOR     NOT AVBL
MICHIGAN CITY    2300            22   30/ 25/ 29   N/A
$$

ABBREVIATIONS USED IN REMARKS
   TC - TEMPERATURE IN CELSIUS
  WCI - WIND CHILL INDEX
   HX - HEAT INDEX
  VSB - VISIBILITY
$$


USA.gov is the U.S. government's official web portal to all federal, state and local government web resources and services.